Voltar ao catálogo

STARLINK-2615

AtivoComunicaçõesVLEO
NORAD 48678·PAYLOAD·🇺🇸 United States

Lançado May 26, 2021 de Cape Canaveral Space Force Station

Loading…

Próximas Passagens (próximas 24 horas)

TLE

AtualizadoSource: CelesTrak SupGP

Época: Sep 15, 2026, 02:07 UTC

1 48678C 21044AS  26258.08868056  .00032287  00000+0  10379-2 0  2589
2 48678  53.1585 302.3707 0001225  88.5000  84.3947 15.31695777    12

Acompanhe STARLINK-2615 em tempo real com AllMySat

Download on the App Store